Change the Weather History Date:

Monday, February 25, 2013

  Actual Average Record
Temperature  
Mean Temperature 38 °F -  
Max Temperature 42 °F - - ()
Min Temperature 33 °F - - ()
Degree Days  
Heating Degree Days 28    
Moisture  
Dew Point 36 °F    
Average Humidity 95    
Maximum Humidity 100    
Minimum Humidity 81    
Precipitation  
Precipitation 0.00 in - - ()
Sea Level Pressure  
Sea Level Pressure 30.04 in    
Wind  
Wind Speed 3 mph ()    
Max Wind Speed 9 mph    
Max Gust Speed -    
Visibility 3.2 miles    
Events Fog , Rain    
T = Trace of Precipitation, MM = Missing Value Source: Averaged Metar Reports

Daily Weather History Graph

Daily Weather History Graph

Search for Another Location

Airport or City:

Trip Planner

Search our weather history database for the weather conditions in past years. The results will help you decide how hot, cold, wet, or windy it might be!

Date:

Astronomy

Feb. 25, 2013 Rise Set
Actual Time 6:49 AM CET 5:34 PM CET
Civil Twilight 6:17 AM CET 6:06 PM CET
Nautical Twilight 5:39 AM CET 6:44 PM CET
Astronomical Twilight 5:02 AM CET 7:21 PM CET
Moon 5:33 PM CET (2/25) 6:08 AM CET (2/25)
Length of Visible Light 11h 49m
Length of Day
10h 44m
Full, 100% of the Moon is Illuminated
Feb 25
Full
Feb 25
Full
Mar 4
Last Quarter
Mar 11
New
Mar 19
First Quarter

Hourly Weather History & Observations

Time (CET) Temp. Windchill Dew Point Humidity Pressure Visibility Wind Dir Wind Speed Gust Speed Precip Events Conditions
12:00 AM 33.8 °F 29.6 °F 32.0 °F 93% 29.92 in 0.2 mi WNW 4.6 mph - N/A Fog Fog
1:00 AM 33.8 °F 30.8 °F 32.0 °F 93% 29.92 in 0.2 mi WNW 3.5 mph - N/A Fog Fog
2:00 AM 33.8 °F - 32.0 °F 93% 29.92 in 0.2 mi NNW 2.3 mph - N/A Fog Fog
3:00 AM 33.8 °F - 33.8 °F 100% 29.92 in 0.2 mi NNW 2.3 mph - N/A Fog , Rain Light Rain
4:00 AM 33.8 °F - 32.0 °F 93% 29.92 in 0.2 mi NNW 2.3 mph - N/A Fog , Rain Light Rain
5:00 AM 33.8 °F - 33.8 °F 100% 29.92 in 0.2 mi Calm Calm - N/A Fog , Rain Light Rain
6:00 AM 33.8 °F 27.7 °F 33.8 °F 100% 29.95 in 1.2 mi ENE 6.9 mph - N/A   Overcast
7:00 AM 35.6 °F 31.7 °F 35.6 °F 100% 29.95 in 1.6 mi ENE 4.6 mph - N/A   Overcast
7:37 AM 35.6 °F - 35.6 °F 100% 29.98 in 0.7 mi Variable 2.3 mph - N/A   Overcast
8:00 AM 35.6 °F - 35.6 °F 100% 29.98 in 0.7 mi Variable 2.3 mph - N/A   Overcast
8:31 AM 37.4 °F 34.9 °F 35.6 °F 93% 29.98 in 1.6 mi East 3.5 mph - N/A   Overcast
9:00 AM 35.6 °F - 35.6 °F 100% 30.01 in 1.9 mi Variable 2.3 mph - N/A   Mostly Cloudy
10:00 AM 37.4 °F - 37.4 °F 100% 30.01 in 2.8 mi East 1.2 mph - N/A   Mostly Cloudy
10:31 AM 39.2 °F 35.9 °F 37.4 °F 93% 30.04 in 3.7 mi East 4.6 mph - N/A   Mostly Cloudy
11:00 AM 39.2 °F - 37.4 °F 93% 30.04 in 3.7 mi Variable 2.3 mph - N/A   Mostly Cloudy
12:00 PM 41.0 °F - 39.2 °F 93% 30.06 in 5.0 mi Variable 2.3 mph - N/A   Mostly Cloudy
1:00 PM 42.8 °F 37.5 °F 37.4 °F 81% 30.06 in 6.2 mi ESE 9.2 mph - N/A   Mostly Cloudy
2:00 PM 42.8 °F 39.3 °F 39.2 °F 87% 30.09 in 6.2 mi SE 5.8 mph - N/A   Mostly Cloudy
3:00 PM 42.8 °F - 39.2 °F 87% 30.09 in 6.2 mi East 2.3 mph - N/A   Overcast
4:00 PM 42.8 °F - 39.2 °F 87% 30.12 in 6.2 mi East 2.3 mph - N/A   Mostly Cloudy
5:00 PM 39.2 °F - 39.2 °F 100% 30.12 in 6.2 mi SSW 1.2 mph - N/A   Mostly Cloudy
6:00 PM 39.2 °F - 37.4 °F 93% 30.15 in 6.2 mi Calm Calm - N/A   Overcast
7:00 PM 37.4 °F - 35.6 °F 93% 30.18 in 6.2 mi Calm Calm - N/A   Overcast
8:00 PM 37.4 °F - 37.4 °F 100% 30.18 in 6.2 mi Calm Calm - N/A   Mostly Cloudy
9:00 PM 35.6 °F 31.7 °F 33.8 °F 93% 30.21 in 5.0 mi SW 4.6 mph - N/A   Mostly Cloudy
10:00 PM 35.6 °F - 35.6 °F 100% 30.24 in 3.7 mi NNW 2.3 mph - N/A   Overcast
11:00 PM 35.6 °F - 33.8 °F 93% 30.24 in 3.1 mi Calm Calm - N/A   Overcast